Location: Fuglau
(48.6333°N, 15.5500°E)
Time: 16:34:56
(UTC+00:00)

STARLINK-54 - Pass Details

Date: 27 February 2020
Orbit: 529 x 530 km, 53.0° (Epoch: 01 April)

Event Time Altitude Azimuth Distance (km) Brightness Sun altitude
Rises 17:08:08 0° 269° (W) 2,665 9.8 -5.9°
Reaches altitude 10° 17:10:24 10° 275° (W) 1,777 7.9 -6.2°
Maximum altitude 17:14:18 47° 351° (N) 705 4.2 -6.9°
Drops below altitude 10° 17:18:14 10° 66° (ENE) 1,781 5.6 -7.5°
Enters shadow 17:18:32 - 67° (ENE) 1,894 5.8 -7.6°
